Weather Roundup
Issued by NWS

Home | Current Version | Previous Version | Text Only | Print | Product List | Glossary On
Versions: 1 2 3 4 5 6 7 8 9 10 11 12 13 14 15 16 17 18 19 20 21 22 23 24 25 26 27 28 29 30 31 32 33 34 35 36 37 38 39 40 41 42 43 44 45 46 47 48 49 50
000
NZUS93 KARX 261259
HRRWXR

CURRENT HOURLY OBSERVATIONS ACROSS
MUCH OF THE UPPER MISSISSIPPI VALLEY
NATIONAL WEATHER SERVICE LA CROSSE WI
800 AM CDT TUE JUL 26 2016


...SOUTHEAST MINNESOTA...


CITY           SKY/WX    TMP DP  RH WIND       PRES   REMARKS
ROCHESTER      SUNNY     72  67  84 SW6       30.10R
ROCHESTER/MAYO FAIR      71  65  81 SW5       30.10R
WINONA         SUNNY     70  64  83 CALM      30.07S
AUSTIN         SUNNY     68  64  88 CALM      30.10S
ALBERT LEA     SUNNY     72  66  83 SW5       30.09S
DODGE CENTER   SUNNY     72  64  78 SW6       30.10R
PRESTON        SUNNY     69  64  83 CALM      30.11R
OWATONNA       SUNNY     72  64  78 S7        30.09R
FARIBAULT      SUNNY     72  66  83 CALM      30.08S
$$

...ELSEWHERE IN MINNESOTA...


CITY           SKY/WX    TMP DP  RH WIND       PRES   REMARKS
MINNEAPOLIS    MOSUNNY   75  65  70 SW7       30.05S
INTNL FALLS    SUNNY     69  65  86 CALM      29.98R
DULUTH         CLOUDY    72  65  78 W6        30.00S
RED WING       SUNNY     73  66  78 CALM      30.05S
REDWOOD FALLS  SUNNY     72  64  76 SW9       30.03S
MANKATO        SUNNY     70  63  78 S5        30.07S
WORTHINGTON    SUNNY     72  65  78 SW10      30.09S
FAIRMONT       SUNNY     72  64  78 SW6       30.07S
$$

...SOUTHWEST WISCONSIN...


CITY           SKY/WX    TMP DP  RH WIND       PRES   REMARKS
LA CROSSE      CLOUDY    69  67  93 S8        30.07R FOG
PRAIRIE DU CHI FOG       66  65  95 CALM      30.08S VSB<1/4
BOSCOBEL       FOG       66  65  96 CALM      30.09S VSB 1/4
LONE ROCK      NOT AVBL
PLATTEVILLE    SUNNY     69  67  96 CALM      30.10S
FORT MC COY    SUNNY     62  61  95 CALM      30.09S
MAUSTON-NEW LI SUNNY     66  65  94 CALM      30.08R
VIROQUA        FAIR      68  66  93 CALM      30.10R
WIS DELLS      NOT AVBL
$$

...ELSEWHERE IN WISCONSIN...


CITY           SKY/WX    TMP DP  RH WIND       PRES   REMARKS
MILWAUKEE      MOSUNNY   78  64  61 CALM      30.07S
MADISON        SUNNY     73  67  81 CALM      30.08S
GREEN BAY      SUNNY     70  67  90 CALM      30.06R
EAU CLAIRE     NOT AVBL
BLACK RVR FLS  FAIR      65  65 100 CALM      30.07S
MEDFORD        SUNNY     69  68  99 W3        30.09S
WAUSAU         SUNNY     71  63  75 NW3       30.07S
WIS RAPIDS     SUNNY     73  63  70 CALM      30.10R
MARSHFIELD     SUNNY     73  64  73 W6        30.08S
RICE LAKE      PTSUNNY   67  65  96 CALM      30.07F
$$

...NORTHEAST IOWA...


CITY           SKY/WX    TMP DP  RH WIND       PRES   REMARKS
WATERLOO       SUNNY     70  66  87 CALM      30.08F
DUBUQUE        SUNNY     72  65  78 MISG      30.10S
DECORAH        SUNNY     68  66  94 CALM      30.09S
MASON CITY     SUNNY     73  66  78 S3        30.12R
CHARLES CITY   SUNNY     70  68  94 CALM      30.11S
OELWEIN        SUNNY     68  66  94 CALM      30.10
$$

...ELSEWHERE IN IOWA...


CITY           SKY/WX    TMP DP  RH WIND       PRES   REMARKS
DES MOINES     SUNNY     73  68  84 W3        30.09R
IOWA CITY      SUNNY     75  66  73 NE5       30.09F
FORT DODGE     SUNNY     70  66  88 CALM      30.11S
MARSHALLTOWN   SUNNY     70  67  90 CALM      30.09S
CEDAR RAPIDS   SUNNY     71  68  90 CALM      30.08F
$$

...NORTHERN ILLINOIS...


CITY           SKY/WX    TMP DP  RH WIND       PRES   REMARKS
CHICAGO-OHARE  MOSUNNY   79  65  62 CALM      30.06F
CHICAGO-MIDWAY PTSUNNY   78  63  59 CALM      30.06S
MOLINE         SUNNY     75  66  73 CALM      30.07S
ROCKFORD       SUNNY     80  68  66 CALM      30.09S
PEORIA         MOSUNNY   76  69  79 E6        30.06S
$$

NOTE: "FAIR" INDICATES FEW OR NO CLOUDS BELOW 12,000 FEET WITH NO
SIGNIFICANT WEATHER AND/OR OBSTRUCTIONS TO VISIBILITY. WIND
SPEEDS ARE IN MILES-PER-HOUR.




USA.gov is the U.S. government's official web portal to all federal, state and local government web resources and services.